Regional Weather Roundup
Issued by NWS

Home | Current Version | Previous Version | Graphics & Text | Print | Product List | Glossary On
Versions: 1 2 3 4 5 6 7 8 9 10 11 12 13 14 15 16 17 18 19 20 21 22 23 24 25 26 27 28 29 30 31 32 33 34 35 36 37 38 39 40 41 42 43 44 45 46 47 48 49 50
000
ASUS43 KBIS 292110
RWRND

NORTH DAKOTA REGIONAL WEATHER ROUNDUP
NATIONAL WEATHER SERVICE BISMARCK ND
400 PM CDT FRI AUG 29 2014

NOTE: "FAIR" INDICATES FEW OR NO CLOUDS BELOW 12,000 FEET WITH NO
SIGNIFICANT WEATHER AND/OR OBSTRUCTIONS TO VISIBILITY.


NDZ001>003-009>011-017-292200-
NORTHWEST NORTH DAKOTA

CITY           SKY/WX    TMP DP  RH WIND       PRES   REMARKS
WILLISTON      CLOUDY    72  48  42 N12       29.97F
MINOT          MOSUNNY   70  52  52 N16       29.93F
MINOT AFB      PTSUNNY   69  53  57 NE10      29.93F
$$

NDZ018>021-031>035-040>046-292200-
SOUTHWEST NORTH DAKOTA

CITY           SKY/WX    TMP DP  RH WIND       PRES   REMARKS
BISMARCK       CLOUDY    70  58  65 N20       29.91S
DICKINSON      PTSUNNY   69  55  60 N13       29.97F
GARRISON         N/A     68  54  60 N10G18    29.93S
HETTINGER ARPT MOSUNNY   70  55  59 N16G24    29.98S
$$

NDZ004>008-012>016-024-026-027-054-292200-
NORTHEAST NORTH DAKOTA

CITY           SKY/WX    TMP DP  RH WIND       PRES   REMARKS
GRAND FORKS    CLOUDY    70  65  84 N18G28    29.76R
GRND FRKS AFB  CLOUDY    66  66 100 N17G25    29.79R
DEVILS LAKE    CLOUDY    63  52  67 N18G24    29.86R
$$

NDZ022-023-025-028>030-036>039-047>053-292200-
SOUTHEAST NORTH DAKOTA

CITY           SKY/WX    TMP DP  RH WIND       PRES   REMARKS
FARGO          CLOUDY    75  65  70 W9        29.75F
JAMESTOWN      CLOUDY    70  62  76 NW21G29   29.81R
$$



USA.gov is the U.S. government's official web portal to all federal, state and local government web resources and services.